Muncie, IN

6:13 AM EST on November 21, 2017 (GMT -0500)
Delaware County-Johnson

Weather History for KMIE - February, 2013

Change the Weather History Date:

Monday, February 18, 2013

  Actual Average Record
Temperature  
Mean Temperature 41 °F 30 °F  
Max Temperature 57 °F 39 °F 67 °F (2017)
Min Temperature 25 °F 22 °F -10 °F (1993)
Degree Days  
Heating Degree Days 24 35  
Month to date heating degree days 607 660  
Since 1 July heating degree days 3684 4053  
Cooling Degree Days 0 0  
Month to date cooling degree days 0 0  
Year to date cooling degree days 0 0  
Moisture  
Dew Point 26 °F    
Average Humidity 62    
Maximum Humidity 82    
Minimum Humidity 42    
Precipitation  
Precipitation 0.12 in 0.08 in 0.72 in (2000)
Month to date precipitation 0.40 1.50  
Year to date precipitation 4.55 3.73  
Sea Level Pressure  
Sea Level Pressure 29.89 in    
Wind  
Wind Speed 16 mph (South)    
Max Wind Speed 31 mph    
Max Gust Speed 46 mph    
Visibility 10 miles    
Events Rain    
T = Trace of Precipitation, MM = Missing Value Source: NWS Daily Summary

Daily Weather History Graph

Daily Weather History Graph

Search for Another Location

Airport or City:

Trip Planner

Search our weather history database for the weather conditions in past years. The results will help you decide how hot, cold, wet, or windy it might be!

Date:

Astronomy

Feb. 18, 2013 Rise Set
Actual Time 7:30 AM EST 6:21 PM EST
Civil Twilight 7:02 AM EST 6:48 PM EST
Nautical Twilight 6:31 AM EST 7:20 PM EST
Astronomical Twilight 5:59 AM EST 7:51 PM EST
Moon 12:06 PM EST (2/18) 2:09 AM EST (2/18)
Length of Visible Light 11h 45m
Length of Day
10h 50m
First Quarter, 58% of the Moon is Illuminated
Feb 18
First Quarter
Feb 25
Full
Mar 4
Last Quarter
Mar 11
New
Mar 19
First Quarter

Hourly Weather History & Observations

Time (EST) Temp. Windchill Dew Point Humidity Pressure Visibility Wind Dir Wind Speed Gust Speed Precip Events Conditions
12:53 AM 26.1 °F 17.6 °F 8.1 °F 47% 30.17 in 10.0 mi South 8.1 mph - N/A   Clear
1:53 AM 27.0 °F 18.0 °F 8.1 °F 45% 30.16 in 10.0 mi SSE 9.2 mph - N/A   Scattered Clouds
2:53 AM 28.0 °F 18.6 °F 8.1 °F 43% 30.13 in 10.0 mi SSE 10.4 mph - N/A   Clear
3:53 AM 28.0 °F 18.6 °F 10.0 °F 47% 30.11 in 10.0 mi SSE 10.4 mph - N/A   Clear
4:53 AM 28.9 °F 19.2 °F 10.9 °F 47% 30.08 in 10.0 mi SSE 11.5 mph - N/A   Clear
5:53 AM 30.0 °F 20.5 °F 12.0 °F 47% 30.06 in 10.0 mi SSE 11.5 mph - N/A   Clear
6:53 AM 30.9 °F 20.2 °F 12.0 °F 46% 30.03 in 10.0 mi South 15.0 mph 25.3 mph N/A   Clear
7:53 AM 30.9 °F 19.8 °F 14.0 °F 50% 30.01 in 10.0 mi South 16.1 mph 20.7 mph N/A   Clear
8:53 AM 35.1 °F 25.2 °F 17.1 °F 48% 29.99 in 10.0 mi South 16.1 mph 26.5 mph N/A   Clear
9:53 AM 37.9 °F 28.2 °F 19.9 °F 48% 29.97 in 10.0 mi South 18.4 mph 32.2 mph N/A   Clear
10:53 AM 44.1 °F 35.7 °F 25.0 °F 47% 29.95 in 10.0 mi SSW 20.7 mph 28.8 mph N/A   Clear
11:53 AM 48.0 °F - 28.9 °F 48% 29.93 in 10.0 mi SSW 13.8 mph 31.1 mph N/A   Clear
12:53 PM 50.0 °F - 32.0 °F 50% 29.89 in 10.0 mi SSW 20.7 mph 28.8 mph N/A   Clear
1:53 PM 52.0 °F - 34.0 °F 50% 29.87 in 10.0 mi SSW 15.0 mph 28.8 mph N/A   Clear
2:53 PM 55.0 °F - 36.0 °F 49% 29.82 in 10.0 mi South 21.9 mph 32.2 mph N/A   Clear
3:53 PM 57.0 °F - 37.9 °F 49% 29.79 in 10.0 mi South 21.9 mph 33.4 mph N/A   Clear
4:53 PM 55.9 °F - 35.1 °F 45% 29.76 in 10.0 mi South 17.3 mph 27.6 mph N/A   Partly Cloudy
5:53 PM 55.0 °F - 34.0 °F 45% 29.75 in 10.0 mi SSW 15.0 mph 25.3 mph N/A   Overcast
6:53 PM 54.0 °F - 33.1 °F 45% 29.75 in 10.0 mi SSW 13.8 mph 23.0 mph N/A   Mostly Cloudy
7:53 PM 50.0 °F - 37.0 °F 61% 29.73 in 10.0 mi South 15.0 mph 21.9 mph 0.01 in   Overcast
8:53 PM 50.0 °F - 36.0 °F 59% 29.68 in 10.0 mi South 17.3 mph 25.3 mph N/A   Overcast
9:53 PM 50.0 °F - 37.0 °F 61% 29.67 in 10.0 mi SSW 18.4 mph 35.7 mph 0.00 in Rain Light Rain
10:53 PM 46.0 °F 38.5 °F 41.0 °F 83% 29.65 in 9.0 mi South 19.6 mph 33.4 mph 0.07 in Rain Light Rain
11:43 PM 46.4 °F 37.9 °F 39.2 °F 76% 29.61 in 10.0 mi South 25.3 mph 40.3 mph 0.04 in Rain Light Rain
11:53 PM 46.0 °F 38.0 °F 39.9 °F 79% 29.60 in 10.0 mi South 21.9 mph 34.5 mph 0.04 in Rain Light Rain